Weather History for Springfield, MO

Change the Weather History Date:

Wednesday, January 4, 2012

  Actual Average Record
Temperature  
Mean Temperature 40 °F 32 °F  
Max Temperature 51 °F 42 °F 68 °F (1888)
Min Temperature 28 °F 23 °F -7 °F (1959)
Degree Days  
Heating Degree Days 25 33  
Month to date heating degree days 121 129  
Since 1 July heating degree days 1798 1939  
Cooling Degree Days 0 0  
Month to date cooling degree days 0 0  
Year to date cooling degree days 0 0  
Moisture  
Dew Point 24 °F    
Average Humidity 57    
Maximum Humidity 72    
Minimum Humidity 42    
Precipitation  
Precipitation 0.00 in 0.09 in 1.93 in (2005)
Month to date precipitation 0.00 0.35  
Year to date precipitation 0.00 0.35  
Snow  
Snow 0.00 in - - ()
Month to date snowfall 0.0  
Since 1 July snowfall 0.4  
Snow Depth 0.00 in    
Sea Level Pressure  
Sea Level Pressure 30.20 in    
Wind  
Wind Speed 7 mph (West)    
Max Wind Speed 20 mph    
Max Gust Speed 24 mph    
Visibility 10 miles    
Events      
T = Trace of Precipitation, MM = Missing Value Source: NWS Daily Summary

Daily Weather History Graph

Daily Weather History Graph

Search for Another Location

Airport:

Trip Planner

Search our weather history database for the weather conditions in past years. The results will help you decide how hot, cold, wet, or windy it might be!

Date:

Astronomy

Jan. 04, 2012 Rise Set
Actual Time 7:27 AM CST 5:09 PM CST
Civil Twilight 6:58 AM CST 5:38 PM CST
Nautical Twilight 6:26 AM CST 6:10 PM CST
Astronomical Twilight 5:54 AM CST 6:42 PM CST
Moon 1:31 PM CST (1/4) 3:17 AM CST (1/4)
Length of Visible Light 10h 39m
Length of Day
9h 41m
Waxing Gibbous, 81% of the Moon is Illuminated
Jan 4
Waxing Gibbous
Jan 9
Full
Jan 16
Last Quarter
Jan 23
New
Jan 30
First Quarter

Hourly Weather History & Observations

Time (CST) Temp. Windchill Dew Point Humidity Pressure Visibility Wind Dir Wind Speed Gust Speed Precip Events Conditions
12:52 AM 32.0 °F 24.8 °F 16.0 °F 52% 30.13 in 10.0 mi South 8.1 mph - N/A   Clear
1:52 AM 34.0 °F 25.5 °F 18.0 °F 52% 30.10 in 10.0 mi SSW 11.5 mph - N/A   Clear
2:52 AM 35.1 °F 27.9 °F 19.9 °F 54% 30.11 in 10.0 mi SW 9.2 mph - N/A   Clear
3:52 AM 35.1 °F 30.1 °F 19.9 °F 54% 30.11 in 10.0 mi SW 5.8 mph - N/A   Clear
4:52 AM 37.4 °F 30.8 °F 19.4 °F 48% 30.11 in 10.0 mi WSW 9.2 mph - N/A   Clear
5:52 AM 37.9 °F 30.5 °F 19.9 °F 48% 30.15 in 10.0 mi WSW 11.5 mph - N/A   Clear
6:52 AM 37.0 °F 29.3 °F 21.9 °F 54% 30.17 in 10.0 mi West 11.5 mph - N/A   Clear
7:52 AM 36.0 °F 29.6 °F 23.0 °F 59% 30.18 in 10.0 mi West 8.1 mph - N/A   Clear
8:52 AM 39.0 °F 32.8 °F 25.0 °F 57% 30.21 in 10.0 mi West 9.2 mph - N/A   Clear
9:52 AM 42.1 °F 35.7 °F 26.1 °F 53% 30.25 in 10.0 mi WNW 11.5 mph - N/A   Clear
10:52 AM 44.1 °F 39.0 °F 28.0 °F 53% 30.24 in 10.0 mi WNW 9.2 mph 17.3 mph N/A   Clear
11:52 AM 46.9 °F - 28.9 °F 50% 30.21 in 10.0 mi WNW 9.2 mph - N/A   Clear
12:52 PM 48.9 °F - 28.9 °F 46% 30.19 in 10.0 mi WNW 6.9 mph - N/A   Clear
1:52 PM 50.0 °F - 28.9 °F 44% 30.19 in 10.0 mi WNW 12.7 mph 20.7 mph N/A   Clear
2:52 PM 51.1 °F - 30.0 °F 44% 30.20 in 10.0 mi WNW 11.5 mph 19.6 mph N/A   Clear
3:52 PM 50.0 °F - 28.0 °F 43% 30.21 in 10.0 mi WNW 10.4 mph - N/A   Clear
4:52 PM 48.0 °F - 27.0 °F 44% 30.22 in 10.0 mi WNW 6.9 mph - N/A   Clear
5:52 PM 43.0 °F - 26.1 °F 51% 30.24 in 10.0 mi Calm Calm - N/A   Clear
6:52 PM 34.0 °F - 24.1 °F 67% 30.27 in 10.0 mi Calm Calm - N/A   Clear
7:52 PM 33.1 °F - 24.1 °F 70% 30.28 in 10.0 mi Calm Calm - N/A   Clear
8:52 PM 30.9 °F 27.5 °F 23.0 °F 72% 30.29 in 10.0 mi WSW 3.5 mph - N/A   Clear
9:52 PM 30.9 °F 27.5 °F 21.9 °F 69% 30.30 in 10.0 mi West 3.5 mph - N/A   Clear
10:52 PM 32.0 °F - 21.9 °F 66% 30.29 in 10.0 mi Calm Calm - N/A   Clear
11:52 PM 28.9 °F 23.9 °F 21.0 °F 72% 30.26 in 10.0 mi SSW 4.6 mph - N/A   Clear